Location: Arles � Bouc Canal
(43.5595°N, 4.7253°E)
Time: 14:15:58
(UTC+00:00)

Daily predictions for brighter satellites

Satellite Brightness Start Highest point End
(mag) Time Altitude Azimuth Time Altitude Azimuth Time Altitude Azimuth
Cosmos 1486 Rocket 4.3 19:23:13 10° S 19:28:19 49° ESE 19:33:28 10° NNE
CZ-4C R/B 4.2 19:24:25 10° NNW 19:30:13 27° NE 19:36:47 10° E
FALCON 9 DEB 3.0 19:30:22 10° WNW 19:33:24 67° SW 19:36:23 10° SE
ERS-2 2.7 19:30:18 10° N 19:33:54 61° WNW 19:37:27 10° SSW
SL-4 R/B 2.3 19:30:02 10° WNW 19:34:23 80° SW 19:38:59 10° SE
SL-08 ROCKET BODY 4.4 19:31:38 10° N 19:37:33 71° E 19:43:21 10° SSE
Helios 1A Rocket 4.2 19:33:57 10° S 19:37:53 43° W 19:41:51 10° NNW
ATLAS 5 CENTAUR R/B 3.1 19:36:03 10° NNW 19:41:16 41° NE 19:47:08 11° ESE
Cosmos 1844 3.8 19:36:29 10° S 19:42:05 58° ESE 19:47:40 10° NNE
OBJECT-B 1.3 19:39:12 10° S 19:42:24 62° W 19:45:38 10° NNW
IRS-1A Rocket 4.4 19:44:35 10° SSE 19:50:21 88° ENE 19:56:15 10° NNW
Intercosmos 24 3.9 19:49:34 10° S 19:53:21 48° E 19:56:47 10° NNE
Cosmos 1833 Rocket 4.4 19:49:25 10° N 19:53:27 19° NE 19:57:27 10° E
Cosmos 1242 Rocket 3.1 19:52:41 10° SSE 19:56:00 36° E 19:59:19 10° NNE
Cosmos 1805 Rocket 3.5 19:56:09 10° N 20:00:30 80° E 20:04:51 10° S
FALCON 9 DEB 4.3 20:04:52 10° WNW 20:07:32 28° SW 20:09:21 16° S
Cosmos 1633 Rocket 3.8 20:04:07 10° N 20:08:10 35° ENE 20:10:42 19° SE
Cosmos 1386 Rocket 4.4 20:02:22 10° N 20:08:26 82° E 20:14:32 10° S
ARIANE 5 R/B 4.0 20:06:13 16° ESE 20:08:30 24° ENE 20:11:59 10° NNE
DELTA 2 R/B (1) 3.9 20:03:10 10° W 20:08:31 49° SSW 20:12:22 18° SE
Terra 3.9 20:06:42 10° E 20:09:04 14° ENE 20:11:28 10° NNE
CZ-2C R/B 4.1 20:05:10 10° NNE 20:09:25 41° E 20:13:08 13° SSE
USA 290 2.2 20:09:54 10° NNW 20:13:08 68° ENE 20:14:52 25° SSE
ERS-1 Rocket 4.4 20:10:41 15° ESE 20:13:23 23° ENE 20:17:15 10° NNE
IGS 5A 3.4 20:11:11 17° SSE 20:14:19 69° ENE 20:18:27 10° N
Intercosmos 25 Rocket 4.4 20:09:12 10° NNW 20:15:24 62° W 20:19:18 10° S
Resurs 1-3 4.2 20:12:14 10° S 20:16:32 56° W 20:20:52 10° NNW
Cosmos 1328 Rocket 4.2 20:14:51 19° SSE 20:17:25 37° E 20:21:30 10° NNE
Cosmos 1437 3.9 20:17:58 21° E 20:17:58 21° E 20:20:00 10° NE
Cosmos 1745 Rocket 4.0 20:11:47 10° N 20:18:00 83° W 20:24:08 10° S
Cosmos 1933 3.3 20:14:21 10° S 20:18:23 87° E 20:22:26 10° N
Cosmos 1503 Rocket 3.9 20:14:09 10° SSW 20:19:18 79° ESE 20:24:31 10° NNE
Cosmos 1709 Rocket 4.0 20:14:38 10° N 20:20:42 61° E 20:25:15 18° SSE
Cosmos 1437 Rocket 4.0 20:17:34 10° SSW 20:21:15 43° WNW 20:25:02 10° N
X-37B 0.6 20:19:26 10° WNW 20:22:38 77° N 20:24:16 26° E
Cosmos 2082 Rocket 4.0 20:24:55 10° N 20:28:53 19° NE 20:32:17 12° E
Cosmos 1500 4.1 20:25:43 10° N 20:29:08 32° ENE 20:30:08 28° ESE
COSMOS 2406 4.2 20:24:23 10° N 20:29:30 33° NE 20:32:38 20° ESE
Ariane Rocket 4.1 20:26:19 10° SSW 20:31:03 41° W 20:35:50 10° NNW
Meteor 1-20 Rocket 4.3 20:26:55 10° NNW 20:32:33 75° W 20:37:10 15° S
Cosmos 1666 Rocket 3.5 20:30:22 10° N 20:34:48 84° E 20:37:20 25° S
IRIS 4.2 20:33:18 10° W 20:35:41 45° S 20:35:51 44° S
Meteor 2-17 Rocket 4.4 20:31:03 10° N 20:37:15 86° E 20:41:51 19° S
Cosmos 2315 Rocket 4.0 20:31:36 10° S 20:37:52 75° E 20:44:16 10° N
Cosmos 1782 2.7 20:36:20 20° S 20:39:00 81° E 20:43:00 10° N
Landsat 7 3.9 20:35:42 20° S 20:39:03 76° WSW 20:43:50 10° NNW
USA 245 2.7 20:42:52 44° NNE 20:42:52 44° NNE 20:44:39 10° N
Cosmos 1271 Rocket 4.3 20:46:42 22° E 20:46:42 22° E 20:49:30 10° NE
SPOT 1/Viking Rocket 3.5 20:45:30 26° SSE 20:48:34 89° ENE 20:53:48 10° NNW
Cosmos 1354 Rocket 4.4 20:46:04 10° SSW 20:51:15 65° WNW 20:56:29 10° NNE
SJ 16-02 2.2 20:52:10 30° E 20:52:10 30° E 20:56:00 10° NE
Cosmos 1602 4.1 20:48:25 10° NNW 20:52:14 61° W 20:54:02 29° SSW
Cosmos 2278 Rocket 2.4 20:50:06 27° SSE 20:52:48 46° ESE 20:58:12 10° NE
Sich 1 4.5 20:50:15 10° NNW 20:54:11 34° W 20:57:44 12° SSW
Resurs 01 Rocket 2.9 20:53:04 14° SSW 20:56:27 36° W 21:00:34 10° NNW
Cosmos 2228 Rocket 4.3 21:01:58 26° E 21:01:58 26° E 21:05:31 10° NNE
H-2A R/B 4.2 21:01:01 10° NNE 21:04:39 35° E 21:04:39 35° E
NOSS 3-3 (A) 4.0 21:00:46 10° SW 21:06:28 79° NW 21:13:01 10° NE
NOSS 3-3 (C) 4.0 21:00:52 10° SW 21:06:35 79° NW 21:13:07 10° NE
USA 307 4.3 21:06:51 10° NW 21:10:46 33° NNE 21:12:48 22° ENE
ATLAS 2AS CENTAUR R/B 4.1 21:05:27 10° NNW 21:12:02 32° NE 21:16:52 15° E
Cosmos 1151 Rocket 4.1 21:09:49 13° SW 21:13:22 42° WNW 21:17:34 10° N
SL-4 R/B 4.3 21:10:45 10° W 21:13:34 16° SW 21:14:33 15° SW
Cosmos 1812 2.7 21:16:50 58° SSW 21:17:31 80° W 21:21:24 10° N
BREEZE-M R/B 3.9 21:15:25 10° WNW 21:17:33 26° N 21:18:26 21° NNE
Meteor 1-10 Rocket 4.2 21:17:12 42° SSE 21:18:57 63° E 21:24:30 10° NNE
Cosmos 1536 4.2 21:16:10 10° NNE 21:19:22 26° ENE 21:19:22 26° ENE
CZ-4C R/B 3.0 21:12:25 10° NW 21:19:47 82° NE 21:23:48 35° SE
Iridium 4 Rocket 3.7 21:18:17 40° SSE 21:20:27 76° E 21:26:22 10° N
USA 308 4.0 21:20:20 10° NW 21:24:22 38° NNE 21:25:49 29° ENE
ATLAS 5 CENTAUR R/B 3.1 21:20:32 10° NW 21:26:03 44° WSW 21:28:41 30° SSW
Cosmos 1538 Rocket 4.0 21:22:07 10° NNW 21:27:32 80° ENE 21:28:51 52° SSE
Cosmos 2084 4.3 21:24:33 10° WSW 21:28:34 48° NW 21:32:42 10° NNE
Meteor 1-5 Rocket 4.1 21:23:42 10° NNW 21:29:07 78° W 21:30:46 45° S
SL-24 DEB 4.3 21:30:18 53° E 21:30:38 55° E 21:35:09 10° N
Milstar 3 4.1 21:21:03 10° SW 21:31:31 31° S 21:32:11 30° S
Cosmos 158 Rocket 4.1 21:27:08 10° NNW 21:31:55 52° ENE 21:32:38 48° E
Cosmos 1666 2.7 21:31:23 10° N 21:34:56 74° WNW 21:34:56 74° WNW
Cosmos 1515 Rocket 4.1 21:34:00 37° SW 21:35:28 56° W 21:39:49 10° N
Cosmos 1833 Rocket 2.7 21:32:22 10° NNW 21:38:03 78° WSW 21:39:27 52° S
Spot 2 Rocket 4.4 21:36:58 29° SW 21:38:52 41° W 21:43:39 10° NNW
Cosmos 1869 Rocket 3.8 21:37:11 10° N 21:41:16 54° ENE 21:41:16 54° ENE
SPOT 5 3.3 21:41:10 45° SSW 21:42:28 60° W 21:47:39 10° NNW
Cosmos 1743 4.5 21:40:20 10° NNE 21:42:43 23° NE 21:42:43 23° NE
ARIANE 5 R/B 3.8 21:43:44 29° SW 21:44:47 33° W 21:48:44 10° NNW
Cosmos 1680 Rocket 4.3 21:39:54 10° N 21:44:55 39° ENE 21:45:47 37° E
Terra 1.8 21:45:33 64° SSW 21:46:12 76° WSW 21:50:59 10° NNW
ERS-1 Rocket 3.6 21:50:41 40° SW 21:51:52 48° W 21:56:44 10° NNW
Cosmos 1707 Rocket 4.5 21:59:37 38° ENE 21:59:37 38° ENE 22:02:50 10° NNE
Cosmos 2154 Rocket 3.9 21:52:19 10° N 21:58:42 87° E 22:00:11 56° S
X-37B 3.5 21:56:12 10° W 21:56:32 12° W 21:56:32 12° W
USA 305 3.2 22:01:44 10° NW 22:05:35 64° N 22:05:35 64° N
Cosmos 2184 Rocket 4.4 22:00:21 10° NNW 22:06:25 56° W 22:08:18 41° SW
Meteor 1-27 Rocket 3.8 22:12:02 55° SSW 22:13:20 75° W 22:19:16 10° N
Cosmos 2082 Rocket 2.0 22:07:59 10° NNW 22:13:38 78° WSW 22:14:08 71° SSW
COSMOS 2406 4.0 22:08:37 10° NW 22:13:51 39° WSW 22:14:42 37° SW
Cosmos 962 Rocket 4.4 22:10:08 10° N 22:16:16 70° E 22:17:03 63° SE
Cosmos 44 4.2 22:12:17 10° NNW 22:17:30 44° NE 22:18:21 40° ENE
Nadezhda 1 Rocket 4.2 22:16:05 44° SW 22:18:03 67° W 22:24:18 10° N
Cosmos 923 Rocket 3.9 22:15:15 10° NNW 22:20:31 81° WSW 22:20:37 80° SW
Cosmos 1898 Rocket 3.5 22:20:54 69° E 22:20:54 69° E 22:25:56 10° NNE
Cosmos 1271 Rocket 4.5 22:21:48 27° W 22:22:11 27° WNW 22:25:40 10° NNW
USA 306 3.7 22:20:54 10° NW 22:24:02 48° NW 22:24:02 48° NW
SJ 16-02 3.2 22:29:06 22° W 22:30:39 27° WNW 22:34:27 10° N
Meteor 1-19 Rocket 4.4 22:33:42 52° ENE 22:33:42 52° ENE 22:38:30 10° NNE
Cosmos 1733 Rocket 3.8 22:28:59 10° N 22:32:19 48° NNE 22:32:19 48° NNE
Cosmos 2181 Rocket 3.9 22:34:44 63° ESE 22:35:04 64° E 22:41:08 10° NNE
Cosmos 2278 Rocket 3.9 22:32:11 10° WSW 22:37:04 29° NW 22:41:59 10° N
Cosmos 1238 Rocket 3.6 22:33:25 10° N 22:39:43 77° E 22:39:54 76° ESE
Cosmos 990 Rocket 4.2 22:40:06 61° W 22:40:29 63° WNW 22:45:43 10° NNE
Cosmos 1340 Rocket 4.1 22:40:36 10° NNW 22:43:27 39° NW 22:43:27 39° NW
Cosmos 2369 Rocket 3.2 22:48:04 34° ENE 22:48:04 34° ENE 22:52:03 10° NE
Cosmos 2366 rocket 3.9 22:42:59 10° N 22:49:10 71° E 22:49:36 68° ESE
NOSS 3-4 (A) 4.1 22:43:01 10° NW 22:49:58 56° WSW 22:50:58 52° SSW
NOSS 3-4 (C) 4.0 22:43:07 10° NW 22:50:04 56° WSW 22:51:05 53° SSW
Cosmos 967 Rocket 4.3 22:49:56 76° SSW 22:50:28 88° ESE 22:56:48 10° NNE
Cosmos 2341 Rocket 4.0 22:44:38 10° NNW 22:51:02 73° W 22:51:45 66° SW
Cosmos 1943 Rocket 2.1 22:52:38 76° ENE 22:52:38 76° ENE 22:57:55 10° NNE
Meteor 2-9 Rocket 4.1 22:50:44 10° N 22:56:35 82° E 22:56:35 82° E
SeaSat 1 4.1 22:52:43 10° NE 22:55:08 22° ENE 22:55:08 22° ENE
Cosmos 2112 Rocket 4.4 22:54:00 10° NNW 22:58:49 56° W 22:58:49 56° W
USA 215 3.9 22:57:11 22° E 23:01:15 52° NNE 23:07:33 10° NW
ATLAS 2AS CENTAUR R/B 2.6 22:56:23 10° NW 23:03:40 74° WSW 23:04:17 69° SSW
RESURS DK-1 4.5 23:04:32 10° N 23:07:42 21° NE 23:07:42 21° NE
CZ-4C R/B 4.2 23:01:54 10° WNW 23:08:00 26° WSW 23:08:59 25° WSW
Cosmos 2218 Rocket 3.9 23:02:22 10° N 23:08:40 81° W 23:09:04 77° SW
Meteor 2-4 Rocket 3.9 23:09:23 64° ENE 23:09:23 64° ENE 23:14:43 10° NNE
Cosmos 1975 4.3 23:05:52 10° N 23:08:17 36° N 23:08:17 36° N
SL-24 R/B - RUBIN 2 4.3 23:04:54 10° NW 23:09:19 57° WNW 23:09:19 57° WNW
Cosmos 489 Rocket 4.3 23:05:34 10° NNW 23:11:50 87° ENE 23:12:08 82° SE
Cosmos 1937 Rocket 4.3 23:26:03 42° WNW 23:26:17 43° WNW 23:31:13 10° N
Meteor 1-18 Rocket 4.5 23:27:33 58° W 23:27:40 58° WNW 23:33:12 10° N
Nadezhda 3 Rocket 4.1 23:28:06 60° E 23:28:16 60° E 23:34:23 10° NNE
ATLAS CENTAUR R/B 4.0 23:34:54 11° ENE 23:34:54 11° ENE 23:35:04 10° ENE
ALOS 2 3.9 23:36:53 35° NW 23:36:53 35° NW 23:39:45 10° NNW
Cosmos 1607 4.1 23:36:38 62° ESE 23:36:38 62° ESE 23:42:46 10° NE
Thor Agena Rocket 3.7 23:31:57 10° NNE 23:36:39 71° NE 23:36:39 71° NE
Cosmos 1818 4.0 23:32:24 10° NW 23:36:52 56° WNW 23:36:52 56° WNW
Cosmos 1048 Rocket 4.3 23:34:08 10° NNW 23:39:11 61° NE 23:39:11 61° NE
Cosmos 2298 Rocket 4.4 23:41:55 58° ENE 23:41:55 58° ENE 23:46:24 10° NNE
Okean 1-7 4.1 23:42:48 42° N 23:42:48 42° N 23:45:40 10° N
SL-08 R/B 4.4 23:41:08 10° NNW 23:47:20 72° W 23:47:30 72° WSW
Resurs 1-4 Rocket 4.3 23:50:31 10° ENE 23:52:54 13° E 23:53:19 13° E
